When you browse on this site, cookies collect data to enhance your experience and personalize the content and advertising you see.
Visit our Privacy Policy to learn more. By continuing to use the site, you agree to this use of cookies and data.
  • In France
  • List of Countries
  • For 7 days
  • Water Temperature
  • Weather Map
  • Weather Widgets
  • user-avatar
    Login

    Hourly Weather Nuernberg

    Today, 19 September, Thursday

    Time Temperature Precipitation Wind Pressure Humidity
    00:00 +8°C° 0 mm 1 mps 741 mmHg 78%
    01:00 +8°C° 0 mm 1 mps 742 mmHg 79%
    02:00 +8°C° 0 mm 1 mps 742 mmHg 82%
    03:00 +7°C° 0 mm 1 mps 742 mmHg 84%
    04:00 +7°C° 0 mm 1 mps 742 mmHg 86%
    05:00 +7°C° 0 mm 1 mps 742 mmHg 86%
    06:00 +7°C° 0 mm 1 mps 742 mmHg 86%
    07:00 +8°C° 0 mm 1 mps 743 mmHg 86%
    08:00 +9°C° 0 mm 2 mps 743 mmHg 75%
    09:00 +10°C° 0 mm 2 mps 743 mmHg 65%
    10:00 +13°C° 0 mm 2 mps 743 mmHg 55%
    11:00 +14°C° 0 mm 2 mps 743 mmHg 50%
    12:00 +15°C° 0 mm 2 mps 743 mmHg 46%
    13:00 +16°C° 0 mm 2 mps 743 mmHg 43%
    14:00 +16°C° 0 mm 2 mps 743 mmHg 43%
    15:00 +16°C° 0 mm 2 mps 743 mmHg 44%
    16:00 +16°C° 0 mm 2 mps 743 mmHg 44%
    17:00 +14°C° 0 mm 2 mps 743 mmHg 52%
    18:00 +12°C° 0 mm 2 mps 743 mmHg 60%
    19:00 +9°C° 0 mm 2 mps 743 mmHg 67%
    20:00 +8°C° 0 mm 2 mps 743 mmHg 71%
    21:00 +7°C° 0 mm 2 mps 743 mmHg 74%
    22:00 +8°C° 0 mm 1 mps 743 mmHg 77%
    23:00 +7°C° 0 mm 1 mps 743 mmHg 80%

    Tomorrow, 20 September, Friday

    Time Temperature Precipitation Wind Pressure Humidity
    00:00 +7°C° 0 mm 1 mps 743 mmHg 83%
    01:00 +7°C° 0 mm 1 mps 743 mmHg 86%
    02:00 +7°C° 0 mm 1 mps 743 mmHg 87%
    03:00 +6°C° 0 mm 1 mps 743 mmHg 88%
    04:00 +6°C° 0 mm 1 mps 743 mmHg 89%
    05:00 +7°C° 0 mm 1 mps 743 mmHg 87%
    06:00 +7°C° 0 mm 1 mps 743 mmHg 85%
    07:00 +7°C° 0 mm 1 mps 743 mmHg 83%
    08:00 +9°C° 0 mm 1 mps 743 mmHg 74%
    09:00 +11°C° 0 mm 1 mps 743 mmHg 66%
    10:00 +14°C° 0 mm 1 mps 743 mmHg 57%
    11:00 +15°C° 0 mm 2 mps 743 mmHg 51%
    12:00 +16°C° 0 mm 2 mps 742 mmHg 46%
    13:00 +17°C° 0 mm 2 mps 742 mmHg 40%
    14:00 +17°C° 0 mm 2 mps 741 mmHg 42%
    15:00 +17°C° 0 mm 2 mps 741 mmHg 43%
    16:00 +17°C° 0 mm 2 mps 741 mmHg 45%
    17:00 +15°C° 0 mm 2 mps 740 mmHg 52%
    18:00 +13°C° 0 mm 2 mps 740 mmHg 59%
    19:00 +11°C° 0 mm 1 mps 740 mmHg 66%
    20:00 +11°C° 0 mm 1 mps 740 mmHg 69%
    21:00 +10°C° 0 mm 1 mps 740 mmHg 71%
    22:00 +9°C° 0 mm 1 mps 740 mmHg 74%
    23:00 +9°C° 0 mm 1 mps 740 mmHg 75%

    Day after tomorrow, 21 September, Saturday

    Time Temperature Precipitation Wind Pressure Humidity
    00:00 +8°C° 0 mm 2 mps 740 mmHg 75%
    01:00 +7°C° 0 mm 2 mps 740 mmHg 76%
    02:00 +7°C° 0 mm 2 mps 739 mmHg 77%
    03:00 +8°C° 0 mm 1 mps 739 mmHg 79%
    04:00 +7°C° 0 mm 1 mps 739 mmHg 80%
    05:00 +8°C° 0 mm 1 mps 739 mmHg 79%
    06:00 +8°C° 0 mm 1 mps 738 mmHg 78%
    07:00 +8°C° 0 mm 1 mps 738 mmHg 77%
    08:00 +11°C° 0 mm 1 mps 738 mmHg 68%
    09:00 +13°C° 0 mm 2 mps 738 mmHg 59%
    10:00 +16°C° 0 mm 2 mps 738 mmHg 50%
    11:00 +17°C° 0 mm 2 mps 738 mmHg 46%
    12:00 +19°C° 0 mm 2 mps 737 mmHg 43%
    13:00 +20°C° 0 mm 2 mps 737 mmHg 40%
    14:00 +20°C° 0 mm 3 mps 736 mmHg 42%
    15:00 +20°C° 0 mm 3 mps 736 mmHg 44%
    16:00 +21°C° 0 mm 3 mps 735 mmHg 46%
    17:00 +18°C° 0 mm 2 mps 735 mmHg 55%
    18:00 +16°C° 0 mm 2 mps 735 mmHg 63%
    19:00 +13°C° 0 mm 2 mps 734 mmHg 72%
    20:00 +13°C° 0 mm 2 mps 734 mmHg 74%
    21:00 +12°C° 0 mm 2 mps 734 mmHg 76%
    22:00 +10°C° 0 mm 2 mps 734 mmHg 79%
    23:00 +10°C° 0 mm 2 mps 734 mmHg 80%

    22 September, Sunday

    Time Temperature Precipitation Wind Pressure Humidity
    00:00 +10°C° 0 mm 1 mps 733 mmHg 81%
    01:00 +10°C° 0 mm 1 mps 733 mmHg 81%
    02:00 +9°C° 0 mm 1 mps 733 mmHg 82%
    03:00 +9°C° 0 mm 1 mps 733 mmHg 82%
    04:00 +9°C° 0 mm 1 mps 732 mmHg 83%
    05:00 +9°C° 0 mm 1 mps 732 mmHg 82%
    06:00 +9°C° 0 mm 1 mps 732 mmHg 80%
    07:00 +10°C° 0 mm 1 mps 732 mmHg 79%
    08:00 +12°C° 0 mm 2 mps 732 mmHg 72%
    09:00 +14°C° 0 mm 2 mps 732 mmHg 66%
    10:00 +16°C° 0 mm 2 mps 732 mmHg 59%
    11:00 +17°C° 0 mm 2 mps 732 mmHg 57%
    12:00 +19°C° 0 mm 2 mps 732 mmHg 55%
    13:00 +20°C° 0 mm 2 mps 731 mmHg 53%
    14:00 +20°C° 0 mm 2 mps 731 mmHg 55%
    15:00 +20°C° 0 mm 2 mps 731 mmHg 57%
    16:00 +21°C° 0 mm 1 mps 730 mmHg 59%
    17:00 +19°C° 0 mm 2 mps 730 mmHg 66%
    18:00 +17°C° 0 mm 2 mps 730 mmHg 73%
    19:00 +15°C° 0 mm 2 mps 729 mmHg 80%
    20:00 +15°C° 0 mm 2 mps 729 mmHg 81%
    21:00 +14°C° 0 mm 2 mps 729 mmHg 83%
    22:00 +14°C° 0 mm 2 mps 729 mmHg 85%
    23:00 +13°C° 0 mm 1 mps 729 mmHg 86%

    23 September, Monday

    Time Temperature Precipitation Wind Pressure Humidity
    00:00 +13°C° 0 mm 1 mps 729 mmHg 87%
    01:00 +13°C° 0 mm 1 mps 729 mmHg 88%
    02:00 +13°C° 0 mm 1 mps 729 mmHg 88%
    03:00 +13°C° 0 mm 1 mps 729 mmHg 88%
    04:00 +13°C° 0 mm 2 mps 730 mmHg 89%
    05:00 +13°C° 0.1 mm 3 mps 730 mmHg 89%
    06:00 +13°C° 0.1 mm 3 mps 730 mmHg 89%
    07:00 +14°C° 0.1 mm 4 mps 730 mmHg 90%
    08:00 +13°C° 1.6 mm 4 mps 731 mmHg 92%
    09:00 +13°C° 1.6 mm 5 mps 731 mmHg 93%
    10:00 +13°C° 1.6 mm 5 mps 731 mmHg 95%
    11:00 +13°C° 1.8 mm 5 mps 731 mmHg 95%
    12:00 +13°C° 1.8 mm 5 mps 732 mmHg 95%
    13:00 +13°C° 1.8 mm 5 mps 732 mmHg 95%
    14:00 +13°C° 1.6 mm 4 mps 732 mmHg 95%
    15:00 +13°C° 1.6 mm 4 mps 732 mmHg 95%
    16:00 +13°C° 1.6 mm 4 mps 732 mmHg 96%
    17:00 +13°C° 1.1 mm 4 mps 732 mmHg 96%
    18:00 +12°C° 1.1 mm 3 mps 732 mmHg 96%
    19:00 +12°C° 1.1 mm 3 mps 733 mmHg 96%
    20:00 +12°C° 0.4 mm 3 mps 733 mmHg 96%
    21:00 +12°C° 0.4 mm 3 mps 733 mmHg 96%
    22:00 +12°C° 0.4 mm 3 mps 734 mmHg 96%
    23:00 +12°C° 0.2 mm 3 mps 734 mmHg 96%

    24 September, Tuesday

    Time Temperature Precipitation Wind Pressure Humidity
    00:00 +12°C° 0.2 mm 3 mps 734 mmHg 96%
    01:00 +12°C° 0.2 mm 3 mps 734 mmHg 96%
    02:00 +12°C° 0.1 mm 3 mps 734 mmHg 96%
    03:00 +13°C° 0.1 mm 2 mps 734 mmHg 96%
    04:00 +13°C° 0.1 mm 2 mps 734 mmHg 96%
    05:00 +13°C° 0 mm 2 mps 734 mmHg 96%
    06:00 +13°C° 0 mm 2 mps 734 mmHg 96%
    07:00 +13°C° 0 mm 2 mps 734 mmHg 95%
    08:00 +14°C° 0 mm 2 mps 734 mmHg 91%
    09:00 +15°C° 0 mm 1 mps 734 mmHg 87%
    10:00 +16°C° 0 mm 1 mps 734 mmHg 82%
    11:00 +18°C° 0 mm 1 mps 734 mmHg 75%
    12:00 +19°C° 0 mm 1 mps 733 mmHg 68%
    13:00 +21°C° 0 mm 1 mps 733 mmHg 60%
    14:00 +20°C° 0 mm 1 mps 732 mmHg 62%
    15:00 +20°C° 0 mm 1 mps 732 mmHg 64%
    16:00 +19°C° 0 mm 2 mps 732 mmHg 66%
    17:00 +18°C° 0 mm 2 mps 732 mmHg 70%
    18:00 +17°C° 0 mm 2 mps 732 mmHg 75%
    19:00 +16°C° 0 mm 2 mps 732 mmHg 80%
    20:00 +15°C° 0 mm 2 mps 732 mmHg 81%
    21:00 +14°C° 0 mm 3 mps 732 mmHg 82%
    22:00 +14°C° 0 mm 3 mps 732 mmHg 83%
    23:00 +13°C° 0 mm 3 mps 731 mmHg 85%
    Show more